Flag for U.S.A. Weather past 2 weeks in Jacksonville, Florida, U.S.A.

Now
81 °F

Passing clouds.


Feels Like: 85 °F
Forecast: 73 / 82 °F
Wind: 16 mph from South

Location: Jacksonville Naval Air Station

Current Time: Aug 2, 2015 at 3:29:58 AM

Latest Report: Aug 2, 2015 at 2:53 AM


Visibility: 10 mi

Pressure: 29.89 "Hg

Humidity: 74%

Dew point: 72 °F

Location of JacksonvilleLocation

Historic Weather in Jacksonville — Graph

°F

Jacksonville temperature yesterday

Maximum temperature yesterday: 88 °F (at 11:53 AM)
Minimum temperature yesterday: 80 °F (at 5:53 AM)
Average temperature yesterday: 83 °F

Past Weeks' High & Low Weather Summary

 TemperatureHumidityPressure
High100 °F (Jul 23, 3:53 PM)88% (Jul 24, 5:53 AM)30.04 "Hg (Jul 24, 5:53 AM)
Low77 °F (Jul 24, 4:53 AM)37% (Jul 23, 4:53 PM)29.85 "Hg (Jul 26, 3:53 AM)
Average85 °F70%29.93 "Hg
* Reported Jul 18 2:01 AM — Aug 2 1:53 AM, Jacksonville, Weather by CustomWeather, © 2015

Note: Actual official high and low records may vary slightly from our data, if they occured in-between our weather recording intervals... More about our weather records

Advertising

Jacksonville weather history for previous 24 hours

 ConditionsComfort  
Time TempWeatherWind HumidityBarometerVisibility
1:53 AM
Sun, Aug 2
82 °FOvercast.17 mph72%29.90 "Hg10 mi
1:04 AM81 °FMostly cloudy.15 mph74%29.93 "Hg10 mi
11:53 PM
Sat, Aug 1
82 °FPassing clouds.18 mph72%29.91 "Hg10 mi
10:53 PM81 °FPartly cloudy.12 mph74%29.92 "Hg10 mi
9:53 PM81 °FOvercast.9 mph74%29.91 "Hg10 mi
8:53 PM82 °FMostly cloudy.12 mph74%29.88 "Hg10 mi
7:53 PM83 °FCloudy.13 mph72%29.88 "Hg10 mi
6:53 PM85 °FBroken clouds.12 mph68%29.87 "Hg10 mi
5:53 PM84 °FBroken clouds.10 mph70%29.88 "Hg10 mi
4:53 PM83 °FLight rain. Mostly cloudy.13 mph72%29.89 "Hg10 mi
3:53 PM85 °FMostly cloudy.17 mph65%29.89 "Hg10 mi
2:53 PM85 °FPartly sunny.14 mph68%29.89 "Hg10 mi
1:53 PM82 °FLight rain. Broken clouds.16 mph77%29.92 "Hg10 mi
12:53 PM83 °FLight rain. Partly sunny.18 mph70%29.93 "Hg10 mi
11:53 AM88 °FBroken clouds.14 mph61%29.92 "Hg10 mi
10:53 AM85 °FPartly sunny.10 mph65%29.93 "Hg10 mi
9:53 AM84 °FPartly sunny.12 mph70%29.93 "Hg10 mi
8:53 AM84 °FBroken clouds.12 mph67%29.92 "Hg10 mi
7:53 AM81 °FMostly cloudy.10 mph77%29.92 "Hg10 mi
6:53 AM80 °FPartly cloudy.9 mph79%29.91 "Hg10 mi
5:53 AM80 °FPassing clouds.8 mph79%29.90 "Hg10 mi
4:53 AM81 °FPassing clouds.10 mph79%29.91 "Hg10 mi
3:53 AM81 °FClear.12 mph77%29.92 "Hg10 mi
Weather by CustomWeather, © 2015

See weather overviewHow to use our weather pages